Regional Weather Roundup
Issued by NWS

Home | Current Version | Previous Version | Graphics & Text | Print | Product List | Glossary On
Versions: 1 2 3 4 5 6 7 8 9 10 11 12 13 14 15 16 17 18 19 20 21 22 23 24 25 26 27 28 29 30 31 32 33 34 35 36 37 38 39 40 41 42 43 44 45 46 47 48 49 50
000
ASUS43 KMKX 181259
RWRWI

WISCONSIN REGIONAL WEATHER ROUNDUP
NATIONAL WEATHER SERVICE MILWAUKEE/SULLIVAN WI
800 AM CDT SAT APR 18 2015

NOTE: "FAIR" INDICATES FEW OR NO CLOUDS BELOW 12,000 FEET WITH NO
SIGNIFICANT WEATHER AND/OR OBSTRUCTIONS TO VISIBILITY.

WIZ001-002-006>008-014>016-023>028-181400-
NORTHWEST WISCONSIN

CITY           SKY/WX    TMP DP  RH WIND       PRES   REMARKS
SUPERIOR ARPT  SUNNY     40  33  76 E13G18    30.23R WCI  33
ASHLAND        SUNNY     42  34  73 E16G24    30.23R
HAYWARD        SUNNY     44  31  60 E13G18    30.18R
SIREN          SUNNY     45  32  60 E7        30.15S
CUMBERLAND     MOSUNNY   45  32  61 E10       30.14S
RICE LAKE      MOSUNNY   48  32  54 NE9       30.16S
CHETEK         MOSUNNY   48  33  57 NE7       30.15R
LADYSMITH      SUNNY     45  34  64 NE9       30.17R
EAU CLAIRE     NOT AVBL
MENOMONIE      PTSUNNY   51  32  48 NE6       30.13R
NEW RICHMOND   MOSUNNY   48  32  53 E7        30.12R
OSCEOLA        MOSUNNY   49  32  52 E8        30.15R
$$

WIZ003>005-009-010-017-018-181400-
NORTH CENTRAL WISCONSIN

CITY           SKY/WX    TMP DP  RH WIND       PRES   REMARKS
MANITOWISH WTR MOSUNNY   37  33  84 NE8G16    30.20R WCI  31
ARBOR VITAE      N/A     42  34  74 NE7       30.19R HAZE
WOODRUFF         N/A     42  34  74 NE7       30.19R HAZE
RHINELANDER    SUNNY     41  32  70 E10       30.20R
EAGLE RIVER    MOSUNNY   38  31  77 NE10      30.20R WCI  31
LAND O LAKES   CLOUDY    38  32  80 E9        30.21R WCI  32
PHILLIPS       SUNNY     41  33  71 NE7       30.17R
TOMAHAWK       SUNNY     43  32  65 E12       30.18S
MEDFORD        SUNNY     46  32  59 E12       30.14S
MERRILL        SUNNY     45  33  62 E9        30.16S
$$

WIZ029-030-035-036-043>047-181400-
CENTRAL WISCONSIN

CITY           SKY/WX    TMP DP  RH WIND       PRES   REMARKS
WAUSAU         SUNNY     47  32  56 NE10      30.14R
MOSINEE        SUNNY     46  32  57 NE10      30.16R
MARSHFIELD     MOSUNNY   50  31  48 E16       30.13R
STEVENS POINT  MOSUNNY   48  30  49 NE9       30.14R
WAUPACA        MOSUNNY   51  33  50 NE8       30.15R
WAUTOMA        NOT AVBL
WISC RAPIDS    MOSUNNY   53  28  38 E12       30.14R
CAMP DOUGLAS   NOT AVBL
$$

WIZ011>013-019>022-031-037>040-048>050-181400-
NORTHEAST WISCONSIN

CITY           SKY/WX    TMP DP  RH WIND       PRES   REMARKS
ANTIGO         SUNNY     43  34  71 NE12      30.17R
SHAWANO        SUNNY     48  35  60 NE10G16   30.19R
OCONTO         SUNNY     45  36  69 NE12      30.19R
STURGEON BAY   SUNNY     43  34  70 N14       30.22R
GREEN BAY      SUNNY     49  38  65 NE17      30.18R
MANITOWOC      NOT AVBL
APPLETON       NOT AVBL
CLINTONVILLE   SUNNY     46  32  57 NE12G17   30.17R
OSHKOSH        MOSUNNY   49  37  63 NE14G25   30.15R
$$

WIZ032>034-041-042-053>061-181400-
SOUTHWEST WISCONSIN

CITY           SKY/WX    TMP DP  RH WIND       PRES   REMARKS
LA CROSSE      SUNNY     58  33  39 E12G18    30.08S
SPARTA         MOSUNNY   51  33  49 E9        30.11R
VIROQUA        SUNNY     55  33  44 E13       30.08R
BOSCOBEL       SUNNY     54  47  77 NE5       30.06S
PRAIRIE DU CHI MOSUNNY   51  46  85 CALM      30.05S
PLATTEVILLE    MOSUNNY   60  40  47 NE12      30.03F
$$

WIZ056-057-062-063-064-067-068-181400-
SOUTH CENTRAL WISCONSIN

CITY           SKY/WX    TMP DP  RH WIND       PRES   REMARKS
REEDSBURG      MOSUNNY   52  37  56 E7        30.11R
BARABOO/DELLS  MOSUNNY   51  36  57 NE15      30.10R
LONE ROCK      NOT AVBL
MINERAL POINT  NOT AVBL
MADISON        PTSUNNY   56  43  61 NE15      30.09R
MIDDLETON      SUNNY     56  42  58 NE12      30.09R
WATERTOWN      SUNNY     53  42  64 NE15G26   30.09R
MONROE         MOSUNNY   59  43  55 NE9       30.05S
JANESVILLE     MOSUNNY  N/A N/A N/A CALM      30.05
$$

WIZ051-052-058>065-066-070>072-181400-
SOUTHEAST WISCONSIN

CITY           SKY/WX    TMP DP  RH WIND       PRES   REMARKS
MILWAUKEE      MOSUNNY   46  34  62 N22G31    30.13R
WAUKESHA       SUNNY     52  34  50 NE21G31   30.13R
MILWAUKEE/TIMM SUNNY     48  34  57 NE20G29   30.14R
RACINE         MOSUNNY   47  37  68 N20G31    30.12R
BURLINGTON     SUNNY     55  42  60 NE16G22   30.09R
KENOSHA        SUNNY     53  40  61 NE21G26   30.10R
FOND DU LAC    MOSUNNY   50  35  56 NE15G24   30.15R
SHEBOYGAN      MOSUNNY   48  38  68 NE21G31   30.14R
WEST BEND      MOSUNNY   46  32  57 NE15G22   30.13R
JUNEAU         SUNNY     52  39  63 NE8       30.12R
$$

LSZ147-162-181400-
LAKE SUPERIOR

STATION/POSITION TIME  TEMP    WIND        PRES    WAVE
                       AIR SEA DIR/SP/G            HT/PER
                 (UTC) (F)     (DEG/KT/KT) (MB)    (FT/S)
DEVILS ISLAND    1200   38      80/ 14/ 16 1024.9R
PORT WING        1200   41      70/  8/ 11 1023.4R
SAXON HARBOR     1200   41      70/  4/  8 1023.0R
$$

LMZ867-665-643>646-181400-
LAKE MICHIGAN

STATION/POSITION TIME  TEMP    WIND        PRES    WAVE
                       AIR SEA DIR/SP/G            HT/PER
                 (UTC) (F)     (DEG/KT/KT) (MB)    (FT/S)
CHAMBERS ISLAND  1200   41     350/ 14/ 18 1021.3R
NORTHPORT PIER   1200   39     350/ 14/ 20 1021.3R
SISTER BAY       1217   43      10/ 20/ 30   N/A
KEWAUNEE LAKESHO 1200   45      20/ 12/ 18 1020.3R
SHEBOYGAN LAKESH 1200   42      10/ 21/ 24 1021.2R
PORT WASHINGTON  1200   49      30/ 19     1020.3R
MILWAUKEE LAKESH 1200           10/ 26/ 30   N/A
KENOSHA   LAKESH 1200   53      10/  8/  9 1017.9R
$$

TC  - TEMPERATURE IN CELSIUS
VSB - VISIBILITY IN STATUTE MILES
WCI - WIND CHILL INDEX
HX  - HEAT INDEX



USA.gov is the U.S. government's official web portal to all federal, state and local government web resources and services.